{"data":{"norad_id":47383,"epoch":"2026-09-20T03:58:49.872000Z","epoch_age_seconds":54707,"freshness":"FRESH","line1":"1 47383U 21005AL  26263.16585500  .00042544  00000+0  94879-3 0  9990","line2":"2 47383  53.1554 183.7517 0001567  70.2024 289.9152 15.43177812313592","mean_motion":15.43177812,"eccentricity":0.0001567,"inclination_deg":53.1554,"raan_deg":183.7517,"arg_perigee_deg":70.2024,"mean_anomaly_deg":289.9152,"bstar":0.00094879,"rev_number":31359,"period_min":93.313938860598,"perigee_km":435.66958789589,"apogee_km":437.80536955752,"semimajor_km":6814.8744787267,"source":"CELESTRAK","updated_at":"2026-09-20T09:00:38.593284Z"}}